Location: Mary A Oil Field
(38.5606°N, 98.9545°W)
Time: 11:03:55
(UTC+00:00)

USA 215 - Pass Details

Date: 20 January 2020
Orbit: 1101 x 1107 km, 123.0° (Epoch: 06 February)

Event Time Altitude Azimuth Distance (km) Brightness Sun altitude
Rises 11:20:34 0° 115° (ESE) 3,914 7.2 -29.0°
Reaches altitude 10° 11:23:06 10° 111° (ESE) 2,957 6.4 -28.5°
Maximum altitude 11:29:24 53° 37° (NE) 1,326 3.8 -27.3°
Enters shadow 11:32:12 33° 338° (NNW) 1,774 4.1 -26.7°
